When you browse on this site, cookies collect data to enhance your experience and personalize the content and advertising you see.
Visit our Privacy Policy to learn more. By continuing to use the site, you agree to this use of cookies and data.
  • In Deutschland
  • Länderverzeichnis
  • Für 7 Tage
  • Wassertemperatur
  • Wetterkarte
  • Widgets
  • user-avatar
    Anmelden

    Stündliche Wetter Masari Sharif

    Heute, 19 September, Donnerstag

    Zeit Temperatur Niederschläge Wind Luftdruck Luftfeuchtigkeit
    00:00 +17°C° 0 mm 2 m/S 656 mmHg 24%
    01:00 +17°C° 0 mm 2 m/S 656 mmHg 23%
    02:00 +17°C° 0 mm 2 m/S 656 mmHg 24%
    03:00 +16°C° 0 mm 2 m/S 656 mmHg 25%
    04:00 +16°C° 0 mm 1 m/S 656 mmHg 27%
    05:00 +19°C° 0 mm 2 m/S 657 mmHg 21%
    06:00 +21°C° 0 mm 2 m/S 658 mmHg 15%
    07:00 +25°C° 0 mm 2 m/S 659 mmHg 10%
    08:00 +27°C° 0 mm 2 m/S 660 mmHg 9%
    09:00 +29°C° 0 mm 2 m/S 660 mmHg 9%
    10:00 +31°C° 0 mm 2 m/S 660 mmHg 8%
    11:00 +31°C° 0 mm 3 m/S 660 mmHg 8%
    12:00 +33°C° 0 mm 3 m/S 660 mmHg 9%
    13:00 +34°C° 0 mm 4 m/S 659 mmHg 9%
    14:00 +33°C° 0 mm 4 m/S 659 mmHg 10%
    15:00 +33°C° 0 mm 4 m/S 659 mmHg 10%
    16:00 +32°C° 0 mm 4 m/S 659 mmHg 11%
    17:00 +28°C° 0 mm 3 m/S 658 mmHg 14%
    18:00 +24°C° 0 mm 2 m/S 657 mmHg 18%
    19:00 +21°C° 0 mm 1 m/S 657 mmHg 21%
    20:00 +20°C° 0 mm 1 m/S 656 mmHg 24%
    21:00 +20°C° 0 mm 1 m/S 656 mmHg 26%
    22:00 +20°C° 0 mm 1 m/S 656 mmHg 28%
    23:00 +19°C° 0 mm 1 m/S 656 mmHg 29%

    Morgen, 20 September, Freitag

    Zeit Temperatur Niederschläge Wind Luftdruck Luftfeuchtigkeit
    00:00 +19°C° 0 mm 1 m/S 655 mmHg 30%
    01:00 +19°C° 0 mm 1 m/S 655 mmHg 30%
    02:00 +19°C° 0 mm 1 m/S 655 mmHg 31%
    03:00 +18°C° 0 mm 1 m/S 655 mmHg 33%
    04:00 +18°C° 0 mm 1 m/S 655 mmHg 34%
    05:00 +21°C° 0 mm 1 m/S 656 mmHg 28%
    06:00 +23°C° 0 mm 1 m/S 657 mmHg 23%
    07:00 +25°C° 0 mm 1 m/S 658 mmHg 18%
    08:00 +27°C° 0 mm 2 m/S 658 mmHg 16%
    09:00 +29°C° 0 mm 2 m/S 658 mmHg 15%
    10:00 +30°C° 0 mm 3 m/S 658 mmHg 13%
    11:00 +31°C° 0 mm 3 m/S 658 mmHg 13%
    12:00 +32°C° 0 mm 4 m/S 658 mmHg 13%
    13:00 +33°C° 0 mm 5 m/S 657 mmHg 12%
    14:00 +33°C° 0 mm 4 m/S 657 mmHg 13%
    15:00 +32°C° 0 mm 4 m/S 657 mmHg 13%
    16:00 +32°C° 0 mm 4 m/S 657 mmHg 13%
    17:00 +27°C° 0 mm 3 m/S 656 mmHg 17%
    18:00 +24°C° 0 mm 2 m/S 656 mmHg 20%
    19:00 +21°C° 0 mm 1 m/S 655 mmHg 24%
    20:00 +20°C° 0 mm 1 m/S 655 mmHg 25%
    21:00 +20°C° 0 mm 1 m/S 655 mmHg 26%
    22:00 +19°C° 0 mm 1 m/S 655 mmHg 27%
    23:00 +19°C° 0 mm 1 m/S 655 mmHg 30%

    übermorgen, 21 September, Samstag

    Zeit Temperatur Niederschläge Wind Luftdruck Luftfeuchtigkeit
    00:00 +18°C° 0 mm 1 m/S 654 mmHg 34%
    01:00 +16°C° 0 mm 1 m/S 654 mmHg 37%
    02:00 +16°C° 0 mm 1 m/S 653 mmHg 38%
    03:00 +16°C° 0 mm 1 m/S 653 mmHg 39%
    04:00 +16°C° 0 mm 1 m/S 653 mmHg 41%
    05:00 +19°C° 0 mm 1 m/S 654 mmHg 33%
    06:00 +22°C° 0 mm 1 m/S 655 mmHg 26%
    07:00 +24°C° 0 mm 1 m/S 656 mmHg 19%
    08:00 +26°C° 0 mm 2 m/S 656 mmHg 17%
    09:00 +28°C° 0 mm 2 m/S 656 mmHg 14%
    10:00 +30°C° 0 mm 2 m/S 656 mmHg 12%
    11:00 +31°C° 0 mm 3 m/S 656 mmHg 11%
    12:00 +33°C° 0 mm 3 m/S 655 mmHg 10%
    13:00 +34°C° 0 mm 4 m/S 655 mmHg 9%
    14:00 +33°C° 0 mm 4 m/S 655 mmHg 9%
    15:00 +33°C° 0 mm 4 m/S 654 mmHg 9%
    16:00 +33°C° 0 mm 4 m/S 654 mmHg 9%
    17:00 +28°C° 0 mm 3 m/S 653 mmHg 13%
    18:00 +25°C° 0 mm 2 m/S 652 mmHg 16%
    19:00 +20°C° 0 mm 2 m/S 652 mmHg 19%
    20:00 +20°C° 0 mm 2 m/S 651 mmHg 22%
    21:00 +20°C° 0 mm 1 m/S 651 mmHg 24%
    22:00 +20°C° 0 mm 1 m/S 651 mmHg 27%
    23:00 +19°C° 0 mm 1 m/S 651 mmHg 30%

    22 September, Sonntag

    Zeit Temperatur Niederschläge Wind Luftdruck Luftfeuchtigkeit
    00:00 +18°C° 0 mm 1 m/S 651 mmHg 33%
    01:00 +18°C° 0 mm 1 m/S 650 mmHg 37%
    02:00 +16°C° 0 mm 1 m/S 650 mmHg 39%
    03:00 +16°C° 0 mm 1 m/S 650 mmHg 41%
    04:00 +15°C° 0 mm 1 m/S 650 mmHg 44%
    05:00 +20°C° 0 mm 1 m/S 652 mmHg 33%
    06:00 +23°C° 0 mm 1 m/S 653 mmHg 23%
    07:00 +27°C° 0 mm 1 m/S 655 mmHg 12%
    08:00 +29°C° 0 mm 1 m/S 655 mmHg 11%
    09:00 +31°C° 0 mm 2 m/S 656 mmHg 9%
    10:00 +34°C° 0 mm 2 m/S 656 mmHg 8%
    11:00 +34°C° 0 mm 4 m/S 656 mmHg 7%
    12:00 +35°C° 0 mm 5 m/S 657 mmHg 7%
    13:00 +36°C° 0 mm 7 m/S 657 mmHg 6%
    14:00 +35°C° 0 mm 8 m/S 657 mmHg 7%
    15:00 +34°C° 0 mm 8 m/S 658 mmHg 8%
    16:00 +33°C° 0 mm 9 m/S 658 mmHg 8%
    17:00 +29°C° 0 mm 8 m/S 658 mmHg 18%
    18:00 +26°C° 0 mm 6 m/S 658 mmHg 28%
    19:00 +22°C° 0 mm 5 m/S 658 mmHg 37%
    20:00 +20°C° 0 mm 5 m/S 658 mmHg 43%
    21:00 +19°C° 0 mm 4 m/S 658 mmHg 49%
    22:00 +18°C° 0 mm 4 m/S 658 mmHg 54%
    23:00 +17°C° 0 mm 3 m/S 658 mmHg 57%

    23 September, Montag

    Zeit Temperatur Niederschläge Wind Luftdruck Luftfeuchtigkeit
    00:00 +16°C° 0 mm 3 m/S 658 mmHg 60%
    01:00 +15°C° 0 mm 2 m/S 657 mmHg 62%
    02:00 +14°C° 0 mm 2 m/S 657 mmHg 65%
    03:00 +14°C° 0 mm 2 m/S 657 mmHg 67%
    04:00 +13°C° 0 mm 1 m/S 656 mmHg 70%
    05:00 +15°C° 0 mm 1 m/S 657 mmHg 62%
    06:00 +18°C° 0 mm 1 m/S 658 mmHg 54%
    07:00 +20°C° 0 mm 1 m/S 659 mmHg 46%
    08:00 +20°C° 0 mm 2 m/S 659 mmHg 41%
    09:00 +22°C° 0 mm 3 m/S 659 mmHg 36%
    10:00 +25°C° 0 mm 3 m/S 659 mmHg 30%
    11:00 +26°C° 0 mm 3 m/S 658 mmHg 29%
    12:00 +27°C° 0 mm 3 m/S 658 mmHg 27%
    13:00 +28°C° 0 mm 3 m/S 657 mmHg 25%
    14:00 +27°C° 0 mm 3 m/S 657 mmHg 26%
    15:00 +27°C° 0 mm 2 m/S 657 mmHg 27%
    16:00 +27°C° 0 mm 2 m/S 657 mmHg 27%
    17:00 +24°C° 0 mm 1 m/S 656 mmHg 35%
    18:00 +21°C° 0 mm 1 m/S 656 mmHg 44%
    19:00 +16°C° 0 mm 0 m/S 655 mmHg 52%
    20:00 +16°C° 0 mm 0 m/S 655 mmHg 54%
    21:00 +15°C° 0 mm 0 m/S 655 mmHg 56%
    22:00 +15°C° 0 mm 0 m/S 655 mmHg 59%
    23:00 +14°C° 0 mm 0 m/S 655 mmHg 59%

    24 September, Dienstag

    Zeit Temperatur Niederschläge Wind Luftdruck Luftfeuchtigkeit
    00:00 +14°C° 0 mm 0 m/S 655 mmHg 60%
    01:00 +14°C° 0 mm 0 m/S 655 mmHg 61%
    02:00 +14°C° 0 mm 1 m/S 656 mmHg 61%
    03:00 +14°C° 0 mm 1 m/S 656 mmHg 61%
    04:00 +14°C° 0 mm 1 m/S 656 mmHg 60%
    05:00 +16°C° 0 mm 2 m/S 657 mmHg 53%
    06:00 +18°C° 0 mm 2 m/S 658 mmHg 45%
    07:00 +20°C° 0 mm 2 m/S 659 mmHg 37%
    08:00 +21°C° 0 mm 2 m/S 660 mmHg 34%
    09:00 +24°C° 0 mm 3 m/S 660 mmHg 30%
    10:00 +25°C° 0 mm 3 m/S 660 mmHg 26%
    11:00 +26°C° 0 mm 3 m/S 660 mmHg 24%
    12:00 +27°C° 0 mm 4 m/S 660 mmHg 22%
    13:00 +27°C° 0 mm 4 m/S 659 mmHg 20%
    14:00 +27°C° 0 mm 4 m/S 659 mmHg 20%
    15:00 +26°C° 0 mm 4 m/S 659 mmHg 20%
    16:00 +26°C° 0 mm 3 m/S 659 mmHg 20%
    17:00 +22°C° 0 mm 3 m/S 658 mmHg 24%
    18:00 +20°C° 0 mm 2 m/S 658 mmHg 29%
    19:00 +18°C° 0 mm 1 m/S 657 mmHg 33%
    20:00 +16°C° 0 mm 1 m/S 657 mmHg 35%
    21:00 +16°C° 0 mm 1 m/S 657 mmHg 37%
    22:00 +15°C° 0 mm 1 m/S 656 mmHg 39%
    23:00 +15°C° 0 mm 1 m/S 656 mmHg 40%
    Mehr zeigen